This demonstration page uses our WeatherBlox Daily Observations layout. Learn more.

Left ArrowRight Arrow

41.12389, -100.76542

Hourly Observations for March 5, 2019

Temp ( °F °C ) Dew Point ( °F °C ) Humidity (%) Winds ( mph kmh ) Pressure ( in mb ) Visibility ( mi km ) Precip ( " mm )
12:53 am 00:53 Clear -4 -20 -9 -22.8 79 79 NNW 7 11 30.43 1031 10 16 0.00 0.00
1:53 am 01:53 Clear -7 -21.7 -11 -23.9 82 82 NNW 9 15 30.45 1031 10 16 0.00 0.00
2:53 am 02:53 Clear -8 -22.2 -12 -24.4 82 82 NNW 13 20 30.47 1032 10 16 0.00 0.00
3:53 am 03:53 Clear -8 -22.2 -12 -24.4 82 82 N 9 15 30.47 1032 10 16 0.00 0.00
4:53 am 04:53 Clear -10 -23.3 -15 -26.1 78 78 NNW 8 13 30.49 1032 10 16 0.00 0.00
5:53 am 05:53 Clear -8 -22.2 -13 -25 78 78 NW 8 13 30.50 1033 10 16 0.00 0.00
6:53 am 06:53 Clear -8 -22.2 -13 -25 78 78 N 3 6 30.53 1034 10 16 0.00 0.00
7:53 am 07:53 Sunny -6 -21.1 -12 -24.4 75 75 Calm 30.55 1034 10 16 0.00 0.00
8:53 am 08:53 Sunny 3 -16.1 -5 -20.6 69 69 NW 5 7 30.56 1035 10 16 0.00 0.00
9:53 am 09:53 Sunny 11 -11.7 -2 -18.9 55 55 NW 8 13 30.58 1036 10 16 0.00 0.00
10:53 am 10:53 Sunny 17 -8.3 1 -17.2 49 49 NNW 9 15 30.56 1035 10 16 0.00 0.00
11:53 am 11:53 Sunny 21 -6.1 3 -16.1 45 45 NW 14 22 30.57 1035 10 16 0.00 0.00
12:53 pm 12:53 Sunny 24 -4.4 6 -14.4 46 46 NW 8 13 30.55 1035 10 16 0.00 0.00
1:53 pm 13:53 Sunny 26 -3.3 10 -12.2 51 51 WNW 7 11 30.53 1034 10 16 0.00 0.00
2:53 pm 14:53 Sunny 27 -2.8 10 -12.2 49 49 WNW 9 15 30.51 1033 10 16 0.00 0.00
3:53 pm 15:53 Sunny 27 -2.8 11 -11.7 51 51 NW 8 13 30.50 1033 10 16 0.00 0.00
4:53 pm 16:53 Sunny 27 -2.8 11 -11.7 51 51 WNW 8 13 30.51 1033 10 16 0.00 0.00
5:53 pm 17:53 Sunny 24 -4.4 10 -12.2 55 55 W 8 13 30.50 1033 10 16 0.00 0.00
6:53 pm 18:53 Clear 20 -6.7 10 -12.2 65 65 WSW 6 9 30.49 1033 10 16 0.00 0.00
7:53 pm 19:53 Clear 14 -10 6 -14.4 71 71 Calm 30.49 1033 10 16 0.00 0.00
8:53 pm 20:53 Clear 9 -12.8 4 -15.6 80 80 Calm 30.48 1032 10 16 0.00 0.00
9:53 pm 21:53 Clear 6 -14.4 3 -16.1 87 87 Calm 30.48 1032 10 16 0.00 0.00
10:53 pm 22:53 Clear 5 -15 2 -16.7 87 87 Calm 30.45 1031 10 16 0.00 0.00
11:53 pm 23:53 Cloudy 7 -13.9 3 -16.1 84 84 Calm 30.42 1030 10 16 0.00 0.00

Powered by AerisWeather